{"data":{"norad_id":37775,"intl_designator":"2011-041A","name":"ASTRA 1N","alt_names":[],"object_type":"PAYLOAD","status":"ACTIVE","operator":null,"country":"SES","launch_date":"2011-08-06","launch_site_code":"FRGUI","launch_vehicle":null,"mission":null,"orbit_class":"UNKNOWN","rcs_meters":7.9433,"size_class":null,"mass_kg":null,"dimensions":null,"purposes":["comms"],"wikipedia_slug":null,"has_3d_model":false,"image_url":null,"decayed_at":null,"tle_current":{"epoch":"2026-05-25T03:50:01.744224Z","epoch_age_seconds":65216,"freshness":"FRESH","line1":"1 37775U 11041A   26145.15974241  .00000118  00000+0  00000+0 0  9995","line2":"2 37775   0.0887  42.6530 0005910  35.3267 241.4745  1.00272563 44297","mean_motion":1.00272563,"eccentricity":0.000591,"inclination_deg":0.0887,"raan_deg":42.653,"arg_perigee_deg":35.3267,"mean_anomaly_deg":241.4745,"bstar":0,"rev_number":4429,"period_min":1436.0857615657,"perigee_km":35761.457633267,"apogee_km":35811.29608865,"semimajor_km":42164.513860959,"source":"CELESTRAK","updated_at":"2026-05-25T13:38:14.504491Z"}}}